contact:dominique.lefevre@mio.osupytheas.fr, maurice.libes@osupytheas.fr, didier.mallarino@osupytheas.fr
Project:EMSO http://www.emso-fr.org/EMSO-France
Depth: 2436.0 m
Title:EMSO Ligure Ouest : Data MII capteur MICROCAT
DateTime_Computer,Latitude,Longitude,Temperature,Conductivity,Pressure,DateTime_Instrument
DateTime_Computer,Latitude,Longitude,degC,S m-1,dbar,DateTime_Instrument
2020-06-12T00:02:58Z,42.805,6.029,13.2979,4.59992,2470.227,2020-6-12T02:03:43Z
2020-06-12T00:06:02Z,42.805,6.029,13.2982,4.60011,2470.25,2020-6-12T02:06:46Z
2020-06-12T00:09:05Z,42.805,6.029,13.2982,4.60014,2470.203,2020-6-12T02:09:49Z
2020-06-12T00:12:08Z,42.805,6.029,13.2982,4.60003,2470.264,2020-6-12T02:12:52Z
2020-06-12T00:15:11Z,42.805,6.029,13.2979,4.59996,2470.264,2020-6-12T02:15:55Z
2020-06-12T00:18:14Z,42.805,6.029,13.2982,4.59988,2470.24,2020-6-12T02:18:59Z
2020-06-12T00:21:18Z,42.805,6.029,13.2980,4.59984,2470.227,2020-6-12T02:22:02Z
2020-06-12T00:24:21Z,42.805,6.029,13.2975,4.59986,2470.264,2020-6-12T02:25:05Z
2020-06-12T00:27:24Z,42.805,6.029,13.2978,4.60009,2470.203,2020-6-12T02:28:08Z
2020-06-12T00:30:27Z,42.805,6.029,13.2978,4.59994,2470.24,2020-6-12T02:31:11Z
2020-06-12T00:33:31Z,42.805,6.029,13.2985,4.60003,2470.217,2020-6-12T02:34:15Z
2020-06-12T00:36:34Z,42.805,6.029,13.2983,4.59994,2470.24,2020-6-12T02:37:18Z
2020-06-12T00:39:37Z,42.805,6.029,13.2981,4.59996,2470.227,2020-6-12T02:40:21Z
2020-06-12T00:42:40Z,42.805,6.029,13.2987,4.60003,2470.24,2020-6-12T02:43:24Z
2020-06-12T00:45:44Z,42.805,6.029,13.2983,4.59999,2470.227,2020-6-12T02:46:28Z
2020-06-12T00:48:47Z,42.805,6.029,13.2986,4.60014,2470.25,2020-6-12T02:49:31Z
2020-06-12T00:51:50Z,42.805,6.029,13.2984,4.60004,2470.24,2020-6-12T02:52:35Z
2020-06-12T00:54:54Z,42.805,6.029,13.2982,4.59997,2470.203,2020-6-12T02:55:38Z
2020-06-12T00:57:57Z,42.805,6.029,13.2979,4.59994,2470.203,2020-6-12T02:58:41Z
2020-06-12T01:01:00Z,42.805,6.029,13.2983,4.59991,2470.203,2020-6-12T03:01:44Z
2020-06-12T01:04:04Z,42.805,6.029,13.2983,4.60003,2470.217,2020-6-12T03:04:48Z
2020-06-12T01:07:07Z,42.805,6.029,13.2978,4.59995,2470.227,2020-6-12T03:07:51Z
2020-06-12T01:10:10Z,42.805,6.029,13.2976,4.59992,2470.217,2020-6-12T03:10:54Z
2020-06-12T01:13:13Z,42.805,6.029,13.2976,4.59999,2470.189,2020-6-12T03:13:57Z
2020-06-12T01:16:16Z,42.805,6.029,13.2982,4.60008,2470.227,2020-6-12T03:17:01Z
2020-06-12T01:19:20Z,42.805,6.029,13.2978,4.59989,2470.227,2020-6-12T03:20:04Z
2020-06-12T01:22:23Z,42.805,6.029,13.2981,4.60000,2470.227,2020-6-12T03:23:07Z
2020-06-12T01:25:26Z,42.805,6.029,13.2990,4.60007,2470.227,2020-6-12T03:26:10Z
2020-06-12T01:28:30Z,42.805,6.029,13.2981,4.60001,2470.217,2020-6-12T03:29:14Z
2020-06-12T01:31:33Z,42.805,6.029,13.2983,4.59999,2470.217,2020-6-12T03:32:17Z
2020-06-12T01:34:36Z,42.805,6.029,13.2979,4.60013,2470.24,2020-6-12T03:35:20Z
2020-06-12T01:37:39Z,42.805,6.029,13.2982,4.60002,2470.18,2020-6-12T03:38:23Z
2020-06-12T01:40:42Z,42.805,6.029,13.2982,4.60003,2470.24,2020-6-12T03:41:27Z
2020-06-12T01:43:46Z,42.805,6.029,13.2986,4.60013,2470.24,2020-6-12T03:44:30Z
2020-06-12T01:46:49Z,42.805,6.029,13.2979,4.60016,2470.194,2020-6-12T03:47:33Z
2020-06-12T01:49:52Z,42.805,6.029,13.2988,4.60009,2470.203,2020-6-12T03:50:36Z
2020-06-12T01:52:55Z,42.805,6.029,13.2984,4.59992,2470.156,2020-6-12T03:53:40Z
2020-06-12T01:55:59Z,42.805,6.029,13.2982,4.59999,2470.217,2020-6-12T03:56:43Z
2020-06-12T01:59:02Z,42.805,6.029,13.2983,4.59995,2470.227,2020-6-12T03:59:46Z
2020-06-12T02:02:05Z,42.805,6.029,13.2981,4.59993,2470.18,2020-6-12T04:02:49Z
2020-06-12T02:05:08Z,42.805,6.029,13.2986,4.60011,2470.227,2020-6-12T04:05:52Z
2020-06-12T02:08:11Z,42.805,6.029,13.2984,4.59996,2470.227,2020-6-12T04:08:56Z
2020-06-12T02:11:15Z,42.805,6.029,13.2979,4.59990,2470.18,2020-6-12T04:11:59Z
2020-06-12T02:14:18Z,42.805,6.029,13.2982,4.59989,2470.194,2020-6-12T04:15:02Z
2020-06-12T02:17:21Z,42.805,6.029,13.2979,4.59995,2470.217,2020-6-12T04:18:05Z
2020-06-12T02:20:24Z,42.805,6.029,13.2986,4.60011,2470.18,2020-6-12T04:21:09Z
2020-06-12T02:23:28Z,42.805,6.029,13.2973,4.60001,2470.194,2020-6-12T04:24:12Z
2020-06-12T02:26:31Z,42.805,6.029,13.2977,4.59989,2470.217,2020-6-12T04:27:15Z
2020-06-12T02:29:34Z,42.805,6.029,13.2984,4.60013,2470.203,2020-6-12T04:30:18Z
2020-06-12T02:32:37Z,42.805,6.029,13.2983,4.59997,2470.203,2020-6-12T04:33:21Z
2020-06-12T02:35:40Z,42.805,6.029,13.2984,4.60016,2470.18,2020-6-12T04:36:25Z
2020-06-12T02:38:44Z,42.805,6.029,13.2983,4.59999,2470.203,2020-6-12T04:39:28Z
2020-06-12T02:41:47Z,42.805,6.029,13.2976,4.59990,2470.194,2020-6-12T04:42:31Z
2020-06-12T02:44:50Z,42.805,6.029,13.2986,4.60019,2470.18,2020-6-12T04:45:35Z
2020-06-12T02:47:54Z,42.805,6.029,13.2979,4.59993,2470.194,2020-6-12T04:48:38Z
2020-06-12T02:50:57Z,42.805,6.029,13.2978,4.59993,2470.203,2020-6-12T04:51:41Z
2020-06-12T02:54:00Z,42.805,6.029,13.2979,4.59994,2470.18,2020-6-12T04:54:44Z
2020-06-12T02:57:03Z,42.805,6.029,13.2980,4.60011,2470.18,2020-6-12T04:57:47Z
2020-06-12T03:00:07Z,42.805,6.029,13.2982,4.59998,2470.18,2020-6-12T05:00:51Z
2020-06-12T03:03:10Z,42.805,6.029,13.2982,4.60003,2470.194,2020-6-12T05:03:54Z
2020-06-12T03:06:13Z,42.805,6.029,13.2980,4.59997,2470.217,2020-6-12T05:06:57Z
2020-06-12T03:09:16Z,42.805,6.029,13.2981,4.60003,2470.24,2020-6-12T05:10:00Z
2020-06-12T03:12:19Z,42.805,6.029,13.2979,4.59991,2470.217,2020-6-12T05:13:04Z
2020-06-12T03:15:23Z,42.805,6.029,13.2983,4.60009,2470.18,2020-6-12T05:16:07Z
2020-06-12T03:18:26Z,42.805,6.029,13.2982,4.59996,2470.156,2020-6-12T05:19:10Z
2020-06-12T03:21:29Z,42.805,6.029,13.2976,4.59996,2470.18,2020-6-12T05:22:13Z
2020-06-12T03:24:33Z,42.805,6.029,13.2976,4.59991,2470.171,2020-6-12T05:25:17Z
2020-06-12T03:27:36Z,42.805,6.029,13.2983,4.60011,2470.18,2020-6-12T05:28:20Z
2020-06-12T03:30:39Z,42.805,6.029,13.2989,4.59990,2470.203,2020-6-12T05:31:23Z
2020-06-12T03:33:43Z,42.805,6.029,13.2985,4.60004,2470.203,2020-6-12T05:34:27Z
2020-06-12T03:36:46Z,42.805,6.029,13.2987,4.60004,2470.156,2020-6-12T05:37:30Z
2020-06-12T03:39:49Z,42.805,6.029,13.2982,4.59988,2470.156,2020-6-12T05:40:33Z
2020-06-12T03:42:52Z,42.805,6.029,13.2980,4.60006,2470.156,2020-6-12T05:43:36Z
2020-06-12T03:45:56Z,42.805,6.029,13.2981,4.59997,2470.147,2020-6-12T05:46:40Z
2020-06-12T03:48:59Z,42.805,6.029,13.2979,4.59999,2470.194,2020-6-12T05:49:43Z
2020-06-12T03:52:02Z,42.805,6.029,13.2986,4.60004,2470.119,2020-6-12T05:52:46Z
2020-06-12T03:55:05Z,42.805,6.029,13.2988,4.60007,2470.156,2020-6-12T05:55:49Z
2020-06-12T03:58:09Z,42.805,6.029,13.2984,4.59994,2470.156,2020-6-12T05:58:53Z
2020-06-12T04:01:12Z,42.805,6.029,13.2979,4.60009,2470.133,2020-6-12T06:01:56Z
2020-06-12T04:04:15Z,42.805,6.029,13.2985,4.59994,2470.171,2020-6-12T06:04:59Z
2020-06-12T04:07:18Z,42.805,6.029,13.2976,4.59994,2470.156,2020-6-12T06:08:02Z
2020-06-12T04:10:22Z,42.805,6.029,13.2983,4.59998,2470.156,2020-6-12T06:11:06Z
2020-06-12T04:13:25Z,42.805,6.029,13.2978,4.59991,2470.156,2020-6-12T06:14:09Z
2020-06-12T04:16:28Z,42.805,6.029,13.2980,4.59999,2470.184,2020-6-12T06:17:12Z
2020-06-12T04:19:31Z,42.805,6.029,13.2979,4.59990,2470.171,2020-6-12T06:20:15Z
2020-06-12T04:22:34Z,42.805,6.029,13.2980,4.59991,2470.133,2020-6-12T06:23:18Z
2020-06-12T04:25:38Z,42.805,6.029,13.2982,4.59999,2470.11,2020-6-12T06:26:22Z
2020-06-12T04:28:41Z,42.805,6.029,13.2976,4.59999,2470.133,2020-6-12T06:29:25Z
2020-06-12T04:31:44Z,42.805,6.029,13.2981,4.59993,2470.147,2020-6-12T06:32:28Z
2020-06-12T04:34:47Z,42.805,6.029,13.2979,4.59994,2470.133,2020-6-12T06:35:32Z
2020-06-12T04:37:51Z,42.805,6.029,13.2990,4.60001,2470.18,2020-6-12T06:38:35Z
2020-06-12T04:40:54Z,42.805,6.029,13.2983,4.60000,2470.124,2020-6-12T06:41:38Z
2020-06-12T04:43:57Z,42.805,6.029,13.2972,4.59991,2470.156,2020-6-12T06:44:42Z
2020-06-12T04:47:01Z,42.805,6.029,13.2979,4.59999,2470.156,2020-6-12T06:47:45Z
2020-06-12T04:50:04Z,42.805,6.029,13.2980,4.59999,2470.133,2020-6-12T06:50:48Z
2020-06-12T04:53:07Z,42.805,6.029,13.2983,4.60005,2470.18,2020-6-12T06:53:51Z
2020-06-12T04:56:10Z,42.805,6.029,13.2978,4.60003,2470.147,2020-6-12T06:56:54Z
2020-06-12T04:59:13Z,42.805,6.029,13.2982,4.60003,2470.147,2020-6-12T06:59:58Z
2020-06-12T05:02:17Z,42.805,6.029,13.2983,4.59999,2470.133,2020-6-12T07:03:01Z
2020-06-12T05:05:20Z,42.805,6.029,13.2986,4.60004,2470.171,2020-6-12T07:06:04Z
2020-06-12T05:08:23Z,42.805,6.029,13.2980,4.59989,2470.11,2020-6-12T07:09:07Z
2020-06-12T05:11:26Z,42.805,6.029,13.2982,4.60003,2470.147,2020-6-12T07:12:11Z
2020-06-12T05:14:30Z,42.805,6.029,13.2976,4.59990,2470.147,2020-6-12T07:15:14Z
2020-06-12T05:17:33Z,42.805,6.029,13.2977,4.60009,2470.087,2020-6-12T07:18:17Z
2020-06-12T05:20:36Z,42.805,6.029,13.2986,4.60002,2470.147,2020-6-12T07:21:20Z
2020-06-12T05:23:39Z,42.805,6.029,13.2981,4.60007,2470.11,2020-6-12T07:24:23Z
2020-06-12T05:26:43Z,42.805,6.029,13.2982,4.60009,2470.133,2020-6-12T07:27:27Z
2020-06-12T05:29:46Z,42.805,6.029,13.2982,4.59995,2470.11,2020-6-12T07:30:30Z
2020-06-12T05:32:49Z,42.805,6.029,13.2976,4.59999,2470.133,2020-6-12T07:33:33Z
2020-06-12T05:35:52Z,42.805,6.029,13.2979,4.59999,2470.119,2020-6-12T07:36:36Z
2020-06-12T05:38:56Z,42.805,6.029,13.2983,4.59993,2470.147,2020-6-12T07:39:40Z
2020-06-12T05:41:59Z,42.805,6.029,13.2974,4.59984,2470.147,2020-6-12T07:42:43Z
2020-06-12T05:45:02Z,42.805,6.029,13.2983,4.59993,2470.147,2020-6-12T07:45:46Z
2020-06-12T05:48:05Z,42.805,6.029,13.2979,4.59990,2470.087,2020-6-12T07:48:49Z
2020-06-12T05:51:09Z,42.805,6.029,13.2982,4.60001,2470.124,2020-6-12T07:51:53Z
2020-06-12T05:54:12Z,42.805,6.029,13.2978,4.59996,2470.087,2020-6-12T07:54:56Z
2020-06-12T05:57:15Z,42.805,6.029,13.2982,4.60001,2470.1,2020-6-12T07:57:59Z
2020-06-12T06:00:18Z,42.805,6.029,13.2990,4.60001,2470.11,2020-6-12T08:01:02Z
2020-06-12T06:03:21Z,42.805,6.029,13.2986,4.60007,2470.11,2020-6-12T08:04:06Z
2020-06-12T06:06:25Z,42.805,6.029,13.2982,4.60005,2470.133,2020-6-12T08:07:09Z
2020-06-12T06:09:28Z,42.805,6.029,13.2983,4.59998,2470.124,2020-6-12T08:10:12Z
2020-06-12T06:12:31Z,42.805,6.029,13.2980,4.60008,2470.124,2020-6-12T08:13:15Z
2020-06-12T06:15:35Z,42.805,6.029,13.2982,4.59999,2470.087,2020-6-12T08:16:19Z
2020-06-12T06:18:38Z,42.805,6.029,13.2983,4.60013,2470.11,2020-6-12T08:19:22Z
2020-06-12T06:21:41Z,42.805,6.029,13.2986,4.59995,2470.147,2020-6-12T08:22:25Z
2020-06-12T06:24:44Z,42.805,6.029,13.2988,4.60015,2470.11,2020-6-12T08:25:28Z
2020-06-12T06:27:47Z,42.805,6.029,13.2983,4.60016,2470.087,2020-6-12T08:28:32Z
2020-06-12T06:30:51Z,42.805,6.029,13.2988,4.60009,2470.087,2020-6-12T08:31:35Z
2020-06-12T06:33:54Z,42.805,6.029,13.2986,4.60011,2470.063,2020-6-12T08:34:38Z
2020-06-12T06:36:57Z,42.805,6.029,13.2980,4.60003,2470.11,2020-6-12T08:37:41Z
2020-06-12T06:40:01Z,42.805,6.029,13.2980,4.59993,2470.11,2020-6-12T08:40:45Z
2020-06-12T06:43:04Z,42.805,6.029,13.2980,4.59991,2470.087,2020-6-12T08:43:48Z
2020-06-12T06:46:07Z,42.805,6.029,13.2981,4.60005,2470.11,2020-6-12T08:46:51Z
2020-06-12T06:49:10Z,42.805,6.029,13.2973,4.59988,2470.133,2020-6-12T08:49:55Z
2020-06-12T06:52:14Z,42.805,6.029,13.2988,4.59991,2470.11,2020-6-12T08:52:58Z
2020-06-12T06:55:17Z,42.805,6.029,13.2980,4.59994,2470.11,2020-6-12T08:56:01Z
2020-06-12T06:58:20Z,42.805,6.029,13.2990,4.60009,2470.11,2020-6-12T08:59:04Z
2020-06-12T07:01:23Z,42.805,6.029,13.2989,4.59996,2470.1,2020-6-12T09:02:08Z
2020-06-12T07:04:27Z,42.805,6.029,13.2974,4.59991,2470.11,2020-6-12T09:05:11Z
2020-06-12T07:07:30Z,42.805,6.029,13.2978,4.60006,2470.077,2020-6-12T09:08:14Z
2020-06-12T07:10:33Z,42.805,6.029,13.2973,4.59999,2470.11,2020-6-12T09:11:17Z
2020-06-12T07:13:36Z,42.805,6.029,13.2975,4.59981,2470.11,2020-6-12T09:14:21Z
2020-06-12T07:16:40Z,42.805,6.029,13.2982,4.60014,2470.1,2020-6-12T09:17:24Z
2020-06-12T07:19:43Z,42.805,6.029,13.2974,4.59995,2470.11,2020-6-12T09:20:27Z
2020-06-12T07:22:46Z,42.805,6.029,13.2977,4.59994,2470.11,2020-6-12T09:23:30Z
2020-06-12T07:25:49Z,42.805,6.029,13.2986,4.60023,2470.124,2020-6-12T09:26:34Z
2020-06-12T07:28:53Z,42.805,6.029,13.2983,4.59994,2470.11,2020-6-12T09:29:37Z
2020-06-12T07:31:56Z,42.805,6.029,13.2971,4.59986,2470.063,2020-6-12T09:32:40Z
2020-06-12T07:34:59Z,42.805,6.029,13.2978,4.60010,2470.11,2020-6-12T09:35:43Z
2020-06-12T07:38:02Z,42.805,6.029,13.2983,4.59996,2470.087,2020-6-12T09:38:47Z
2020-06-12T07:41:06Z,42.805,6.029,13.2988,4.60010,2470.133,2020-6-12T09:41:50Z
2020-06-12T07:44:09Z,42.805,6.029,13.2979,4.59989,2470.087,2020-6-12T09:44:53Z
2020-06-12T07:47:12Z,42.805,6.029,13.2983,4.60008,2470.1,2020-6-12T09:47:56Z
2020-06-12T07:50:15Z,42.805,6.029,13.2978,4.59994,2470.11,2020-6-12T09:50:59Z
2020-06-12T07:53:19Z,42.805,6.029,13.2981,4.59996,2470.087,2020-6-12T09:54:03Z
2020-06-12T07:56:22Z,42.805,6.029,13.2973,4.59998,2470.1,2020-6-12T09:57:06Z
2020-06-12T07:59:25Z,42.805,6.029,13.2975,4.59988,2470.087,2020-6-12T10:00:09Z
2020-06-12T08:02:29Z,42.805,6.029,13.2979,4.59984,2470.087,2020-6-12T10:03:13Z
2020-06-12T08:05:32Z,42.805,6.029,13.2981,4.59987,2470.11,2020-6-12T10:06:16Z
2020-06-12T08:08:35Z,42.805,6.029,13.2979,4.59991,2470.11,2020-6-12T10:09:19Z
2020-06-12T08:11:38Z,42.805,6.029,13.2983,4.59991,2470.087,2020-6-12T10:12:22Z
2020-06-12T08:14:41Z,42.805,6.029,13.2977,4.59991,2470.087,2020-6-12T10:15:26Z
2020-06-12T08:17:45Z,42.805,6.029,13.2979,4.59986,2470.124,2020-6-12T10:18:29Z
2020-06-12T08:20:48Z,42.805,6.029,13.2980,4.60001,2470.087,2020-6-12T10:21:32Z
2020-06-12T08:23:51Z,42.805,6.029,13.2984,4.60008,2470.1,2020-6-12T10:24:35Z
2020-06-12T08:26:54Z,42.805,6.029,13.2983,4.59996,2470.11,2020-6-12T10:27:38Z
2020-06-12T08:29:58Z,42.805,6.029,13.2983,4.59999,2470.1,2020-6-12T10:30:42Z
2020-06-12T08:33:01Z,42.805,6.029,13.2976,4.60010,2470.1,2020-6-12T10:33:45Z
2020-06-12T08:36:04Z,42.805,6.029,13.2986,4.59996,2470.11,2020-6-12T10:36:48Z
2020-06-12T08:39:07Z,42.805,6.029,13.2980,4.59997,2470.133,2020-6-12T10:39:51Z
2020-06-12T08:42:11Z,42.805,6.029,13.2979,4.59994,2470.1,2020-6-12T10:42:55Z
2020-06-12T08:45:14Z,42.805,6.029,13.2976,4.59991,2470.087,2020-6-12T10:45:58Z
2020-06-12T08:48:17Z,42.805,6.029,13.2974,4.59999,2470.124,2020-6-12T10:49:01Z
2020-06-12T08:51:20Z,42.805,6.029,13.2976,4.59988,2470.124,2020-6-12T10:52:04Z
2020-06-12T08:54:23Z,42.805,6.029,13.2979,4.60009,2470.124,2020-6-12T10:55:08Z
2020-06-12T08:57:27Z,42.805,6.029,13.2982,4.60010,2470.124,2020-6-12T10:58:11Z
2020-06-12T09:00:30Z,42.805,6.029,13.2981,4.59994,2470.124,2020-6-12T11:01:14Z
2020-06-12T09:03:33Z,42.805,6.029,13.2979,4.59997,2470.124,2020-6-12T11:04:17Z
2020-06-12T09:06:36Z,42.805,6.029,13.2973,4.59986,2470.11,2020-6-12T11:07:21Z
2020-06-12T09:09:40Z,42.805,6.029,13.2976,4.59991,2470.087,2020-6-12T11:10:24Z
2020-06-12T09:12:43Z,42.805,6.029,13.2982,4.59992,2470.133,2020-6-12T11:13:27Z
2020-06-12T09:15:46Z,42.805,6.029,13.2979,4.59987,2470.124,2020-6-12T11:16:30Z
2020-06-12T09:18:49Z,42.805,6.029,13.2978,4.59985,2470.11,2020-6-12T11:19:33Z
2020-06-12T09:21:53Z,42.805,6.029,13.2976,4.59992,2470.124,2020-6-12T11:22:37Z
2020-06-12T09:24:56Z,42.805,6.029,13.2979,4.59991,2470.124,2020-6-12T11:25:40Z
2020-06-12T09:27:59Z,42.805,6.029,13.2973,4.59987,2470.147,2020-6-12T11:28:43Z
2020-06-12T09:31:02Z,42.805,6.029,13.2981,4.59998,2470.11,2020-6-12T11:31:47Z
2020-06-12T09:34:06Z,42.805,6.029,13.2991,4.60002,2470.147,2020-6-12T11:34:50Z
2020-06-12T09:37:09Z,42.805,6.029,13.2974,4.59993,2470.11,2020-6-12T11:37:53Z
2020-06-12T09:40:12Z,42.805,6.029,13.2983,4.60009,2470.124,2020-6-12T11:40:57Z
2020-06-12T09:43:16Z,42.805,6.029,13.2974,4.59989,2470.11,2020-6-12T11:44:00Z
2020-06-12T09:46:19Z,42.805,6.029,13.2977,4.59986,2470.11,2020-6-12T11:47:03Z
2020-06-12T09:49:22Z,42.805,6.029,13.2976,4.59986,2470.087,2020-6-12T11:50:06Z
2020-06-12T09:52:25Z,42.805,6.029,13.2983,4.59988,2470.11,2020-6-12T11:53:09Z
2020-06-12T09:55:29Z,42.805,6.029,13.2974,4.59986,2470.147,2020-6-12T11:56:13Z
2020-06-12T09:58:32Z,42.805,6.029,13.2974,4.59986,2470.11,2020-6-12T11:59:16Z
2020-06-12T10:01:35Z,42.805,6.029,13.2979,4.60006,2470.133,2020-6-12T12:02:19Z
2020-06-12T10:04:38Z,42.805,6.029,13.2990,4.59997,2470.147,2020-6-12T12:05:22Z
2020-06-12T10:07:42Z,42.805,6.029,13.2986,4.59995,2470.133,2020-6-12T12:08:26Z
2020-06-12T10:10:45Z,42.805,6.029,13.2980,4.59997,2470.147,2020-6-12T12:11:29Z
2020-06-12T10:13:48Z,42.805,6.029,13.2977,4.59991,2470.171,2020-6-12T12:14:32Z
2020-06-12T10:16:51Z,42.805,6.029,13.2974,4.59984,2470.171,2020-6-12T12:17:35Z
2020-06-12T10:19:55Z,42.805,6.029,13.2976,4.59999,2470.11,2020-6-12T12:20:39Z
2020-06-12T10:22:58Z,42.805,6.029,13.2986,4.60009,2470.171,2020-6-12T12:23:42Z
2020-06-12T10:26:01Z,42.805,6.029,13.2985,4.60005,2470.147,2020-6-12T12:26:45Z
2020-06-12T10:29:04Z,42.805,6.029,13.2979,4.59990,2470.147,2020-6-12T12:29:48Z
2020-06-12T10:32:07Z,42.805,6.029,13.2978,4.59985,2470.133,2020-6-12T12:32:52Z
2020-06-12T10:35:11Z,42.805,6.029,13.2979,4.59986,2470.133,2020-6-12T12:35:55Z
2020-06-12T10:38:14Z,42.805,6.029,13.2982,4.59988,2470.147,2020-6-12T12:38:58Z
2020-06-12T10:41:17Z,42.805,6.029,13.2978,4.59995,2470.133,2020-6-12T12:42:01Z
2020-06-12T10:44:20Z,42.805,6.029,13.2976,4.59987,2470.156,2020-6-12T12:45:05Z
2020-06-12T10:47:24Z,42.805,6.029,13.2976,4.59987,2470.11,2020-6-12T12:48:08Z
2020-06-12T10:50:27Z,42.805,6.029,13.2981,4.59992,2470.156,2020-6-12T12:51:11Z
2020-06-12T10:53:30Z,42.805,6.029,13.2984,4.60010,2470.11,2020-6-12T12:54:14Z
2020-06-12T10:56:33Z,42.805,6.029,13.2979,4.60000,2470.11,2020-6-12T12:57:18Z
2020-06-12T10:59:37Z,42.805,6.029,13.2984,4.59993,2470.194,2020-6-12T13:00:21Z
2020-06-12T11:02:40Z,42.805,6.029,13.2974,4.59988,2470.133,2020-6-12T13:03:24Z
2020-06-12T11:05:43Z,42.805,6.029,13.2982,4.59990,2470.133,2020-6-12T13:06:27Z
2020-06-12T11:08:46Z,42.805,6.029,13.2976,4.59987,2470.156,2020-6-12T13:09:31Z
2020-06-12T11:11:50Z,42.805,6.029,13.2985,4.60009,2470.171,2020-6-12T13:12:34Z
2020-06-12T11:14:53Z,42.805,6.029,13.2974,4.60010,2470.147,2020-6-12T13:15:37Z
2020-06-12T11:17:56Z,42.805,6.029,13.2985,4.60000,2470.133,2020-6-12T13:18:41Z
2020-06-12T11:21:00Z,42.805,6.029,13.2975,4.60000,2470.1,2020-6-12T13:21:44Z
2020-06-12T11:24:03Z,42.805,6.029,13.2977,4.59987,2470.156,2020-6-12T13:24:47Z
2020-06-12T11:27:06Z,42.805,6.029,13.2980,4.59993,2470.124,2020-6-12T13:27:50Z
2020-06-12T11:30:09Z,42.805,6.029,13.2976,4.59987,2470.133,2020-6-12T13:30:53Z
2020-06-12T11:33:12Z,42.805,6.029,13.2980,4.59988,2470.087,2020-6-12T13:33:57Z
2020-06-12T11:36:16Z,42.805,6.029,13.2979,4.59986,2470.143,2020-6-12T13:37:00Z
2020-06-12T11:39:19Z,42.805,6.029,13.2984,4.59993,2470.147,2020-6-12T13:40:03Z
2020-06-12T11:42:22Z,42.805,6.029,13.2977,4.59983,2470.133,2020-6-12T13:43:06Z
2020-06-12T11:45:25Z,42.805,6.029,13.2976,4.59986,2470.11,2020-6-12T13:46:09Z
2020-06-12T11:48:29Z,42.805,6.029,13.2979,4.59991,2470.18,2020-6-12T13:49:13Z
2020-06-12T11:51:32Z,42.805,6.029,13.2978,4.59997,2470.147,2020-6-12T13:52:16Z
2020-06-12T11:54:35Z,42.805,6.029,13.2989,4.60003,2470.156,2020-6-12T13:55:19Z
2020-06-12T11:57:39Z,42.805,6.029,13.2979,4.59989,2470.133,2020-6-12T13:58:23Z
2020-06-12T12:00:42Z,42.805,6.029,13.2978,4.59994,2470.133,2020-6-12T14:01:26Z
2020-06-12T12:03:46Z,42.805,6.029,13.2979,4.59996,2470.156,2020-6-12T14:04:30Z
2020-06-12T12:06:49Z,42.805,6.029,13.2983,4.59992,2470.147,2020-6-12T14:07:33Z
2020-06-12T12:09:52Z,42.805,6.029,13.2981,4.59997,2470.156,2020-6-12T14:10:36Z
2020-06-12T12:12:55Z,42.805,6.029,13.2974,4.59989,2470.133,2020-6-12T14:13:40Z
2020-06-12T12:15:59Z,42.805,6.029,13.2978,4.59987,2470.147,2020-6-12T14:16:43Z
2020-06-12T12:19:02Z,42.805,6.029,13.2974,4.59991,2470.133,2020-6-12T14:19:46Z
2020-06-12T12:22:05Z,42.805,6.029,13.2979,4.59991,2470.133,2020-6-12T14:22:49Z
2020-06-12T12:25:08Z,42.805,6.029,13.2977,4.59991,2470.124,2020-6-12T14:25:53Z
2020-06-12T12:28:12Z,42.805,6.029,13.2977,4.59991,2470.11,2020-6-12T14:28:56Z
2020-06-12T12:31:15Z,42.805,6.029,13.2977,4.59994,2470.147,2020-6-12T14:31:59Z
2020-06-12T12:34:18Z,42.805,6.029,13.2983,4.59998,2470.133,2020-6-12T14:35:03Z
2020-06-12T12:37:22Z,42.805,6.029,13.2979,4.59987,2470.156,2020-6-12T14:38:06Z
2020-06-12T12:40:25Z,42.805,6.029,13.2978,4.59989,2470.147,2020-6-12T14:41:09Z
2020-06-12T12:43:28Z,42.805,6.029,13.2979,4.60001,2470.147,2020-6-12T14:44:12Z
2020-06-12T12:46:31Z,42.805,6.029,13.2975,4.59986,2470.087,2020-6-12T14:47:16Z
2020-06-12T12:49:35Z,42.805,6.029,13.2982,4.59990,2470.133,2020-6-12T14:50:19Z
2020-06-12T12:52:38Z,42.805,6.029,13.2979,4.60002,2470.133,2020-6-12T14:53:22Z
2020-06-12T12:55:41Z,42.805,6.029,13.2978,4.60009,2470.171,2020-6-12T14:56:25Z
2020-06-12T12:58:44Z,42.805,6.029,13.2978,4.59991,2470.11,2020-6-12T14:59:29Z
2020-06-12T13:01:48Z,42.805,6.029,13.2977,4.59987,2470.147,2020-6-12T15:02:32Z
2020-06-12T13:04:51Z,42.805,6.029,13.2979,4.59991,2470.124,2020-6-12T15:05:35Z
2020-06-12T13:07:55Z,42.805,6.029,13.2979,4.59991,2470.11,2020-6-12T15:08:39Z
2020-06-12T13:10:58Z,42.805,6.029,13.2980,4.59987,2470.133,2020-6-12T15:11:42Z
2020-06-12T13:14:01Z,42.805,6.029,13.2976,4.59984,2470.124,2020-6-12T15:14:45Z
2020-06-12T13:17:04Z,42.805,6.029,13.2981,4.60004,2470.11,2020-6-12T15:17:49Z
2020-06-12T13:20:08Z,42.805,6.029,13.2979,4.59994,2470.147,2020-6-12T15:20:52Z
2020-06-12T13:23:11Z,42.805,6.029,13.2979,4.59994,2470.147,2020-6-12T15:23:55Z
2020-06-12T13:26:14Z,42.805,6.029,13.2978,4.59988,2470.11,2020-6-12T15:26:58Z
2020-06-12T13:29:17Z,42.805,6.029,13.2976,4.59986,2470.11,2020-6-12T15:30:01Z
2020-06-12T13:32:21Z,42.805,6.029,13.2978,4.59987,2470.133,2020-6-12T15:33:05Z
2020-06-12T13:35:24Z,42.805,6.029,13.2978,4.59991,2470.133,2020-6-12T15:36:08Z
2020-06-12T13:38:27Z,42.805,6.029,13.2980,4.59985,2470.133,2020-6-12T15:39:11Z
2020-06-12T13:41:30Z,42.805,6.029,13.2974,4.59988,2470.11,2020-6-12T15:42:14Z
2020-06-12T13:44:33Z,42.805,6.029,13.2980,4.59984,2470.133,2020-6-12T15:45:18Z
2020-06-12T13:47:37Z,42.805,6.029,13.2976,4.59984,2470.087,2020-6-12T15:48:21Z
2020-06-12T13:50:40Z,42.805,6.029,13.2976,4.59987,2470.087,2020-6-12T15:51:24Z
2020-06-12T13:53:43Z,42.805,6.029,13.2971,4.59991,2470.133,2020-6-12T15:54:27Z
2020-06-12T13:56:46Z,42.805,6.029,13.2974,4.59985,2470.124,2020-6-12T15:57:31Z
2020-06-12T13:59:50Z,42.805,6.029,13.2983,4.59997,2470.11,2020-6-12T16:00:34Z
2020-06-12T14:02:53Z,42.805,6.029,13.2976,4.59991,2470.11,2020-6-12T16:03:37Z
2020-06-12T14:05:56Z,42.805,6.029,13.2975,4.60006,2470.124,2020-6-12T16:06:40Z
2020-06-12T14:08:59Z,42.805,6.029,13.2982,4.60006,2470.11,2020-6-12T16:09:44Z
2020-06-12T14:12:03Z,42.805,6.029,13.2975,4.59984,2470.124,2020-6-12T16:12:47Z
2020-06-12T14:15:06Z,42.805,6.029,13.2976,4.59989,2470.147,2020-6-12T16:15:50Z
2020-06-12T14:18:09Z,42.805,6.029,13.2982,4.60018,2470.11,2020-6-12T16:18:53Z
2020-06-12T14:21:12Z,42.805,6.029,13.2978,4.60003,2470.1,2020-6-12T16:21:57Z
2020-06-12T14:24:16Z,42.805,6.029,13.2977,4.59986,2470.11,2020-6-12T16:25:00Z
2020-06-12T14:27:19Z,42.805,6.029,13.2973,4.59983,2470.124,2020-6-12T16:28:03Z
2020-06-12T14:30:22Z,42.805,6.029,13.2981,4.59992,2470.124,2020-6-12T16:31:06Z
2020-06-12T14:33:25Z,42.805,6.029,13.2978,4.59985,2470.11,2020-6-12T16:34:10Z
2020-06-12T14:36:29Z,42.805,6.029,13.2979,4.59988,2470.124,2020-6-12T16:37:13Z
2020-06-12T14:39:32Z,42.805,6.029,13.2977,4.59987,2470.124,2020-6-12T16:40:16Z
2020-06-12T14:42:35Z,42.805,6.029,13.2986,4.60010,2470.11,2020-6-12T16:43:19Z
2020-06-12T14:45:39Z,42.805,6.029,13.2977,4.59984,2470.147,2020-6-12T16:46:23Z
2020-06-12T14:48:42Z,42.805,6.029,13.2980,4.59990,2470.1,2020-6-12T16:49:26Z
2020-06-12T14:51:45Z,42.805,6.029,13.2975,4.59987,2470.11,2020-6-12T16:52:29Z
2020-06-12T14:54:49Z,42.805,6.029,13.2974,4.59988,2470.124,2020-6-12T16:55:33Z
2020-06-12T14:57:52Z,42.805,6.029,13.2983,4.59989,2470.11,2020-6-12T16:58:36Z
2020-06-12T15:00:55Z,42.805,6.029,13.2974,4.59984,2470.124,2020-6-12T17:01:39Z
2020-06-12T15:03:59Z,42.805,6.029,13.2976,4.59991,2470.133,2020-6-12T17:04:43Z
2020-06-12T15:07:02Z,42.805,6.029,13.2977,4.59991,2470.1,2020-6-12T17:07:46Z
2020-06-12T15:10:05Z,42.805,6.029,13.2978,4.59985,2470.087,2020-6-12T17:10:49Z
2020-06-12T15:13:08Z,42.805,6.029,13.2975,4.59984,2470.133,2020-6-12T17:13:52Z
2020-06-12T15:16:12Z,42.805,6.029,13.2976,4.59989,2470.1,2020-6-12T17:16:56Z